Total_Precipitation_Accumulation
0.01 0.01 0.02 0.03 0.07 0.14 0.31 0.34 0.33 0.34 0.39 0.32 0.29 0.31 0.45 0.61 0.82 1.49 0.93 0.51 0.32 0.23 0.24 0.23 0.29 0.22 0.19 0.22 0.24 0.32 0.41 0.39 0.39 0.34 0.29 0.30 0.31 0.29 0.29 0.29 0.32 0.38 0.44 0.45 0.47 0.48 0.51 0.52 0.54
0.01 0.02 0.03 0.04 0.10 0.24 0.39 0.35 0.36 0.34 0.34 0.34 0.30 0.31 0.38 0.50 0.41 0.48 0.41 0.40 0.33 0.22 0.23 0.21 0.25 0.27 0.22 0.22 0.25 0.33 0.42 0.41 0.45 0.40 0.33 0.33 0.32 0.33 0.35 0.37 0.38 0.45 0.51 0.52 0.53 0.52 0.53 0.52 0.51
0.01 0.01 0.03 0.04 0.11 0.24 0.40 0.37 0.40 0.36 0.34 0.33 0.39 0.44 0.50 0.63 0.57 0.54 0.48 0.44 0.38 0.28 0.25 0.23 0.23 0.26 0.25 0.25 0.27 0.37 0.45 0.44 0.50 0.45 0.40 0.38 0.37 0.36 0.38 0.41 0.42 0.46 0.52 0.51 0.46 0.45 0.47 0.52 0.51
0.01 0.02 0.03 0.09 0.16 0.18 0.28 0.36 0.40 0.42 0.40 0.36 0.41 0.58 0.59 0.59 0.57 0.56 0.53 0.53 0.43 0.35 0.29 0.23 0.25 0.26 0.29 0.32 0.34 0.45 0.45 0.48 0.55 0.52 0.50 0.47 0.46 0.45 0.44 0.48 0.50 0.49 0.53 0.52 0.51 0.50 0.50 0.55 0.55
0.01 0.02 0.05 0.14 0.16 0.17 0.25 0.35 0.48 0.52 0.51 0.44 0.49 0.78 0.98 0.88 0.80 0.73 0.55 0.54 0.55 0.43 0.34 0.26 0.27 0.32 0.38 0.44 0.46 0.60 0.56 0.59 0.66 0.69 0.65 0.58 0.56 0.53 0.52 0.54 0.57 0.56 0.56 0.55 0.56 0.58 0.57 0.56 0.55
0.01 0.03 0.09 0.17 0.15 0.18 0.26 0.37 0.45 0.48 0.42 0.39 0.55 0.98 1.47 1.28 1.01 1.07 0.92 0.66 0.63 0.47 0.40 0.35 0.33 0.43 0.55 0.62 0.60 0.71 0.66 0.70 0.74 0.78 0.74 0.68 0.62 0.56 0.55 0.57 0.60 0.64 0.68 0.63 0.57 0.54 0.53 0.56 0.58
0.01 0.03 0.11 0.16 0.22 0.25 0.31 0.37 0.49 0.43 0.39 0.52 0.78 1.19 1.59 1.48 1.19 1.23 1.18 0.90 0.80 0.65 0.53 0.46 0.42 0.52 0.72 0.81 0.75 0.76 0.72 0.74 0.80 0.87 0.86 0.76 0.69 0.63 0.61 0.64 0.67 0.70 0.70 0.63 0.57 0.54 0.54 0.56 0.58
0.01 0.02 0.08 0.14 0.30 0.35 0.33 0.38 0.44 0.40 0.48 0.68 0.91 1.14 1.45 1.50 1.28 1.15 1.10 1.06 1.01 0.97 0.79 0.67 0.66 0.71 0.79 0.81 0.84 0.81 0.78 0.84 0.90 0.93 0.89 0.83 0.74 0.71 0.71 0.68 0.73 0.69 0.71 0.72 0.70 0.67 0.66 0.64 0.63
0.02 0.04 0.09 0.17 0.31 0.38 0.36 0.36 0.34 0.36 0.46 0.71 0.81 0.83 1.14 1.28 1.21 1.24 1.20 1.11 1.11 1.11 1.18 1.09 0.94 0.93 0.94 0.90 0.89 0.96 0.93 0.92 0.96 0.97 0.91 0.87 0.89 0.98 0.94 0.81 0.84 0.84 0.89 0.97 0.93 0.87 0.86 0.81 0.78
0.03 0.10 0.12 0.16 0.21 0.28 0.34 0.37 0.33 0.37 0.42 0.63 0.93 0.90 0.89 1.08 1.27 1.39 1.43 1.33 1.29 1.33 1.46 1.47 1.41 1.35 1.27 1.20 1.32 1.33 1.16 1.08 1.05 1.16 1.06 1.04 1.31 1.42 1.23 1.28 1.23 1.20 1.18 1.19 1.19 1.11 1.02 0.94 0.86
0.05 0.10 0.14 0.19 0.16 0.20 0.27 0.32 0.30 0.41 0.58 0.65 0.99 1.29 1.13 1.24 1.56 1.86 1.71 1.68 1.72 1.68 1.52 1.43 1.55 1.64 1.75 1.85 1.71 1.66 1.63 1.60 1.52 1.62 1.54 1.58 1.77 1.69 1.68 1.75 1.59 1.45 1.41 1.40 1.54 1.38 1.07 0.95 1.03
0.07 0.10 0.15 0.17 0.13 0.15 0.18 0.29 0.36 0.49 0.77 0.88 1.09 1.30 1.61 1.59 1.83 1.95 2.01 1.99 1.95 1.99 1.84 1.61 1.56 1.64 1.84 2.01 1.95 1.89 1.86 1.86 1.81 1.86 1.70 1.92 2.10 2.18 2.19 2.25 2.02 1.93 1.89 1.93 1.93 1.81 1.52 1.33 1.30
0.09 0.09 0.11 0.15 0.12 0.11 0.19 0.30 0.35 0.44 0.56 0.75 0.96 1.15 1.54 1.57 1.63 1.93 2.22 2.48 2.50 2.36 2.23 2.07 1.85 1.82 1.97 2.21 2.32 2.20 2.20 2.18 2.30 2.41 2.18 2.21 2.24 2.31 2.60 2.62 2.76 2.41 2.38 2.46 2.41 2.18 2.05 1.87 1.68
0.07 0.07 0.08 0.12 0.11 0.13 0.19 0.25 0.31 0.34 0.45 0.57 0.67 0.89 1.13 1.31 1.60 2.08 2.46 2.78 3.11 2.96 2.67 2.43 2.27 2.11 2.11 2.21 2.47 2.53 2.38 2.45 2.56 2.70 2.58 2.57 2.63 2.74 3.08 3.20 3.18 2.93 2.96 3.14 3.21 2.98 2.70 2.43 2.31
0.06 0.07 0.08 0.09 0.12 0.11 0.15 0.27 0.33 0.38 0.43 0.50 0.57 0.75 0.98 1.39 1.73 2.30 2.75 3.03 3.40 3.17 3.06 2.84 2.72 2.65 2.48 2.45 2.70 2.78 2.69 2.63 2.65 2.85 2.94 2.90 2.98 3.29 3.41 3.68 3.62 3.40 3.41 3.46 3.45 3.66 3.60 3.06 2.71
0.08 0.10 0.14 0.12 0.10 0.09 0.13 0.30 0.39 0.40 0.47 0.55 0.64 0.84 1.08 1.40 1.75 2.06 2.41 2.75 3.29 3.36 3.13 3.04 2.74 2.69 2.90 2.93 3.21 3.14 3.20 3.32 3.23 3.24 3.43 3.45 3.50 3.63 3.69 3.69 3.72 3.64 3.63 3.94 4.05 4.01 3.91 3.63 3.24
0.10 0.10 0.11 0.13 0.11 0.09 0.10 0.26 0.44 0.40 0.41 0.56 0.69 0.97 1.35 1.44 1.66 1.79 2.13 2.41 2.78 2.85 2.92 3.03 2.95 2.91 2.97 3.17 3.53 3.66 3.83 4.01 4.20 4.21 4.40 4.33 4.13 4.08 4.15 4.12 4.19 4.06 4.11 4.09 3.94 4.31 4.22 4.04 3.64
0.06 0.07 0.08 0.11 0.10 0.09 0.10 0.19 0.43 0.53 0.54 0.65 0.72 0.90 1.22 1.34 1.70 1.95 2.10 2.16 2.54 2.77 2.91 3.07 3.23 3.42 3.36 3.39 3.61 4.04 4.27 4.42 4.78 4.84 4.87 4.95 4.95 4.82 4.79 4.73 4.73 4.58 4.47 4.35 4.29 4.33 4.13 3.99 3.70
0.04 0.06 0.07 0.08 0.07 0.09 0.15 0.25 0.41 0.56 0.64 0.78 0.94 0.99 1.05 1.25 1.72 2.17 2.31 2.37 2.67 2.93 3.10 3.08 3.28 3.63 3.85 4.21 4.19 4.39 4.84 5.20 5.33 5.42 5.40 5.32 5.24 5.25 5.09 4.91 5.01 4.84 4.61 4.37 4.28 4.25 4.14 3.80 3.69
0.03 0.05 0.08 0.10 0.11 0.13 0.20 0.34 0.44 0.57 0.67 0.84 1.02 1.08 1.04 1.23 1.55 2.01 2.23 2.54 2.75 2.90 3.17 3.31 3.45 3.91 4.39 4.92 5.42 5.80 6.15 6.15 6.26 6.19 6.08 5.78 5.60 5.52 5.35 5.33 5.15 4.91 4.74 4.48 4.30 4.24 4.13 3.79 3.74
0.04 0.05 0.07 0.10 0.14 0.19 0.26 0.46 0.57 0.67 0.76 0.85 0.96 1.02 1.12 1.34 1.64 1.84 2.08 2.40 2.64 2.85 3.13 3.32 3.68 4.33 5.15 5.66 6.11 6.67 6.99 6.69 6.41 6.12 6.04 5.96 5.89 5.79 5.64 5.58 5.31 5.07 4.80 4.44 4.17 4.04 3.95 3.81 3.78
0.06 0.06 0.06 0.09 0.15 0.27 0.31 0.57 0.85 0.94 1.04 0.96 1.04 1.20 1.33 1.47 1.63 1.81 2.00 2.26 2.56 2.90 3.04 3.27 3.92 4.65 5.30 5.86 6.47 7.06 7.35 7.39 7.17 6.61 6.12 5.71 5.43 5.21 5.06 5.00 4.82 4.63 4.35 4.11 3.83 3.73 3.68 3.79 3.63
0.05 0.05 0.06 0.10 0.16 0.27 0.32 0.58 1.09 1.29 1.35 1.30 1.33 1.38 1.41 1.44 1.56 1.72 1.89 2.11 2.24 2.59 3.09 3.44 4.03 4.72 5.37 6.12 6.87 7.32 7.57 7.56 7.18 6.39 5.62 5.07 4.75 4.46 4.21 4.11 4.02 3.88 3.68 3.51 3.42 3.43 3.39 3.36 3.22
0.05 0.08 0.11 0.15 0.22 0.37 0.35 0.57 1.19 1.53 1.71 1.66 1.52 1.54 1.52 1.42 1.41 1.45 1.66 1.84 2.15 2.52 2.94 3.42 3.73 4.33 5.02 5.64 6.23 6.46 6.65 6.59 6.17 5.75 5.25 4.83 4.30 3.84 3.47 3.30 3.21 3.07 2.96 2.95 2.96 3.00 2.97 2.98 2.97
0.06 0.13 0.31 0.46 0.51 0.47 0.35 0.61 1.22 1.53 1.49 1.47 1.46 1.53 1.50 1.33 1.35 1.55 1.83 1.83 2.11 2.42 2.81 3.26 3.66 4.03 4.55 5.08 5.59 5.83 6.01 5.92 5.43 4.99 4.56 4.14 3.64 3.24 2.91 2.71 2.66 2.57 2.52 2.50 2.61 2.69 2.63 2.59 2.62
0.06 0.13 0.36 0.58 0.61 0.60 0.55 0.93 1.39 1.41 1.28 1.21 1.18 1.22 1.36 1.40 1.44 1.54 1.68 1.77 2.08 2.32 2.59 2.99 3.34 3.70 3.94 4.16 4.54 4.79 4.95 4.83 4.49 4.02 3.54 3.23 2.94 2.62 2.43 2.31 2.23 2.13 2.05 2.04 2.18 2.30 2.36 2.33 2.36
0.08 0.11 0.19 0.27 0.34 0.61 0.95 1.24 1.61 1.54 1.39 1.27 1.13 1.15 1.27 1.24 1.28 1.42 1.60 1.72 1.93 2.24 2.60 2.85 3.00 3.21 3.41 3.62 3.70 3.69 3.81 3.73 3.49 3.19 2.85 2.55 2.29 2.02 1.89 1.85 1.82 1.76 1.72 1.78 1.93 2.01 1.97 1.99 2.04
0.08 0.11 0.15 0.27 0.58 0.85 1.10 1.57 1.92 1.99 1.89 1.75 1.41 1.28 1.22 1.26 1.27 1.30 1.45 1.64 1.74 1.82 2.16 2.48 2.54 2.66 2.76 2.86 2.92 2.85 2.91 2.82 2.75 2.58 2.34 2.08 1.92 1.69 1.59 1.56 1.56 1.57 1.54 1.59 1.65 1.75 1.78 1.75 1.75
0.12 0.14 0.17 0.28 0.41 0.81 1.21 1.80 1.96 2.22 2.31 2.18 1.80 1.62 1.55 1.48 1.40 1.37 1.42 1.50 1.62 1.75 1.92 2.16 2.34 2.35 2.39 2.52 2.51 2.43 2.48 2.45 2.42 2.30 2.13 1.98 1.91 1.76 1.63 1.52 1.56 1.57 1.50 1.48 1.51 1.50 1.55 1.64 1.67
0.12 0.16 0.25 0.48 0.52 0.57 1.06 1.98 2.22 2.33 2.29 2.04 1.85 1.71 1.62 1.53 1.37 1.33 1.31 1.29 1.37 1.60 1.82 1.99 2.10 2.11 2.16 2.23 2.31 2.40 2.43 2.34 2.21 2.01 1.89 1.77 1.65 1.50 1.44 1.40 1.45 1.44 1.33 1.31 1.28 1.23 1.28 1.37 1.48